Location: Copeville
(33.0796°N, 96.4155°W)
Time: 18:10:56
(UTC+00:00)

FO-99 - Visible Passes

Search period start: 28 March 2023 00:00
Search period end: 07 April 2023 00:00
Orbit: 423 x 444 km, 97.1° (Epoch: 27 March)

Date Brightness Start Highest point End Pass type
(mag) Time Alt. Az. Time Alt. Az. Time Alt. Az.
28 Mar ? 01:51:56 10° SSW 01:55:00 33° W 01:58:05 10° NNW visible
29 Mar ? 01:11:46 10° SSE 01:15:02 52° ENE 01:18:18 10° N visible
30 Mar ? 02:04:44 10° SSW 02:07:23 22° W 02:10:03 10° NW visible
31 Mar ? 01:23:51 10° SSE 01:27:11 84° ENE 01:30:32 10° N visible
01 Apr ? 02:17:28 10° SW 02:19:27 15° W 02:21:25 10° WNW visible
02 Apr ? 01:35:44 10° S 01:39:01 60° W 01:42:19 10° NNW visible
04 Apr ? 01:47:23 10° S 01:50:31 38° W 01:53:39 10° NNW visible
05 Apr ? 01:06:49 10° SSE 01:09:59 43° ENE 01:13:09 10° N visible
06 Apr ? 01:58:51 10° SSW 02:01:41 26° W 02:04:31 10° NW visible
